contact:dominique.lefevre@mio.osupytheas.fr, maurice.libes@osupytheas.fr, didier.mallarino@osupytheas.fr
Project:EMSO http://www.emso-fr.org/EMSO-France
Depth: 2436.0 m
Title:EMSO Ligure Ouest : Data MII capteur AQUADOPP
Date,Latitude,Longitude,X_East,Y_North,Z_Up,Amplitude_X,Amplitude_Y,Amplitude_Z,Batterie,SoundSpeed,Heading,Pitch,Roll,Pressure,TIS,Speed,Direction
, degrees North, degrees East, m.s-1, m.s-1,m.s-1, 1, 1, 1, Volt, m.s-1, degree, degree, degree, dbar, degree_C, m.s-1, degree
2021-10-17T00:04:03,42.805,6.029,0.014,-0.017,-0.025,101.0,100.0,99.0,13.4,1505.2,328.5,-0.8,1.8,2470.659,13.28,0.022,140.5
2021-10-17T00:07:03,42.805,6.029,0.012,-0.024,0.017,101.0,100.0,100.0,13.3,1505.2,329.6,-0.7,1.8,2470.653,13.28,0.026,153.4
2021-10-17T00:10:03,42.805,6.029,0.014,-0.028,-0.026,100.0,100.0,99.0,13.4,1505.2,328.0,-0.7,1.8,2470.611,13.28,0.031,153.4
2021-10-17T00:13:03,42.805,6.029,0.02,-0.013,-0.026,100.0,99.0,99.0,13.3,1505.2,327.3,-0.8,1.8,2470.635,13.28,0.023,123.0
2021-10-17T00:16:03,42.805,6.029,0.02,-0.022,-0.007,101.0,100.0,99.0,13.4,1505.2,325.7,-0.7,1.8,2470.605,13.28,0.029,137.7
2021-10-17T00:19:03,42.805,6.029,0.024,-0.015,0.003,100.0,100.0,100.0,13.4,1505.2,331.4,-0.8,1.8,2470.622,13.28,0.028,122.0
2021-10-17T00:22:03,42.805,6.029,0.021,-0.012,0.002,101.0,100.0,99.0,13.4,1505.2,326.3,-0.7,1.8,2470.651,13.28,0.024,119.7
2021-10-17T00:25:03,42.805,6.029,0.045,-0.01,0.013,100.0,100.0,100.0,13.4,1505.2,327.0,-0.8,1.9,2470.628,13.28,0.046,102.5
2021-10-17T00:28:03,42.805,6.029,0.025,-0.024,-0.003,100.0,100.0,100.0,13.3,1505.2,327.5,-0.7,1.8,2470.618,13.28,0.034,133.8
2021-10-17T00:31:03,42.805,6.029,0.038,-0.017,-0.007,100.0,101.0,99.0,13.4,1505.2,327.2,-0.7,1.8,2470.629,13.28,0.041,114.1
2021-10-17T00:34:03,42.805,6.029,0.005,-0.02,-0.025,99.0,103.0,99.0,13.4,1505.2,327.2,-0.8,1.8,2470.647,13.28,0.02,166.0
2021-10-17T00:37:03,42.805,6.029,0.0,-0.007,-0.009,100.0,101.0,99.0,13.4,1505.2,327.4,-0.8,1.8,2470.649,13.28,0.007,180.0
2021-10-17T00:40:03,42.805,6.029,0.021,-0.031,-0.015,100.0,101.0,100.0,13.4,1505.2,329.3,-0.8,1.8,2470.6,13.28,0.037,145.9
2021-10-17T00:43:03,42.805,6.029,0.0,-0.013,-0.042,100.0,101.0,99.0,13.4,1505.2,330.9,-0.7,1.8,2470.646,13.28,0.013,180.0
2021-10-17T00:46:03,42.805,6.029,0.021,-0.007,-0.023,100.0,99.0,101.0,13.4,1505.2,327.0,-0.7,1.8,2470.62,13.28,0.022,108.4
2021-10-17T00:49:03,42.805,6.029,0.012,-0.011,-0.031,99.0,100.0,101.0,13.4,1505.2,325.9,-0.7,1.8,2470.592,13.28,0.016,132.5
2021-10-17T00:52:03,42.805,6.029,0.017,-0.023,-0.025,99.0,100.0,101.0,13.4,1505.2,325.5,-0.7,1.8,2470.6,13.28,0.028,143.5
2021-10-17T00:55:03,42.805,6.029,0.026,-0.061,-0.067,99.0,99.0,100.0,13.4,1505.2,326.9,-0.7,1.8,2470.624,13.28,0.066,156.9
2021-10-17T00:58:03,42.805,6.029,-0.001,-0.007,-0.012,100.0,100.0,99.0,13.4,1505.2,326.6,-0.8,1.8,2470.62,13.28,0.007,188.1
2021-10-17T01:04:03,42.805,6.029,0.007,-0.032,-0.019,101.0,100.0,100.0,13.4,1505.2,327.5,-0.7,1.8,2470.685,13.28,0.032,167.7
2021-10-17T01:07:03,42.805,6.029,0.043,-0.038,-0.011,100.0,101.0,100.0,13.3,1505.2,328.9,-0.7,1.8,2470.686,13.28,0.057,131.5
2021-10-17T01:10:03,42.805,6.029,0.022,-0.012,-0.006,100.0,100.0,100.0,13.4,1505.2,329.3,-0.7,1.8,2470.694,13.28,0.025,118.6
2021-10-17T01:13:03,42.805,6.029,0.01,-0.003,-0.015,100.0,99.0,100.0,13.4,1505.2,325.0,-0.8,1.8,2470.664,13.28,0.01,106.7
2021-10-17T01:16:03,42.805,6.029,-0.015,0.015,0.057,99.0,100.0,99.0,13.3,1505.2,327.0,-0.8,1.8,2470.684,13.28,0.021,315.0
2021-10-17T01:19:03,42.805,6.029,0.033,-0.002,0.012,100.0,100.0,99.0,13.4,1505.2,329.3,-0.8,1.8,2470.646,13.28,0.033,93.5
2021-10-17T01:22:03,42.805,6.029,0.01,-0.017,0.001,100.0,101.0,99.0,13.4,1505.2,330.3,-0.7,1.8,2470.625,13.28,0.019,149.5
2021-10-17T01:25:03,42.805,6.029,0.017,-0.029,-0.034,100.0,100.0,99.0,13.3,1505.2,326.6,-0.8,1.8,2470.638,13.28,0.033,149.6
2021-10-17T01:28:03,42.805,6.029,0.023,-0.023,-0.014,100.0,100.0,99.0,13.4,1505.2,328.2,-0.7,1.8,2470.661,13.28,0.032,135.0
2021-10-17T01:31:03,42.805,6.029,0.004,-0.015,-0.037,100.0,100.0,99.0,13.4,1505.2,328.1,-0.7,1.8,2470.662,13.28,0.015,165.1
2021-10-17T01:34:03,42.805,6.029,0.033,-0.028,-0.015,101.0,100.0,99.0,13.4,1505.2,327.3,-0.7,1.8,2470.648,13.28,0.043,130.3
2021-10-17T01:37:03,42.805,6.029,0.041,-0.001,0.007,102.0,101.0,99.0,13.4,1505.2,330.0,-0.8,1.8,2470.625,13.28,0.041,91.4
2021-10-17T01:40:03,42.805,6.029,0.043,-0.016,0.003,99.0,101.0,98.0,13.4,1505.2,327.9,-0.7,1.8,2470.66,13.28,0.045,110.4
2021-10-17T01:43:03,42.805,6.029,0.004,-0.005,-0.015,100.0,100.0,100.0,13.3,1505.2,331.6,-0.8,1.8,2470.635,13.28,0.006,141.3
2021-10-17T01:46:03,42.805,6.029,0.007,-0.012,-0.002,99.0,100.0,100.0,13.3,1505.2,331.1,-0.7,1.8,2470.674,13.28,0.013,149.7
2021-10-17T01:49:03,42.805,6.029,0.016,-0.005,-0.018,100.0,101.0,98.0,13.4,1505.2,329.8,-0.7,1.9,2470.707,13.28,0.016,107.4
2021-10-17T01:52:03,42.805,6.029,0.031,-0.015,0.012,100.0,101.0,100.0,13.4,1505.2,327.7,-0.7,1.8,2470.675,13.28,0.034,115.8
2021-10-17T01:55:03,42.805,6.029,0.03,-0.025,0.001,100.0,100.0,99.0,13.4,1505.2,326.5,-0.8,1.8,2470.687,13.28,0.039,129.8
2021-10-17T01:58:03,42.805,6.029,0.039,-0.025,-0.004,99.0,101.0,100.0,13.3,1505.2,325.9,-0.7,1.9,2470.624,13.28,0.046,122.7
2021-10-17T02:04:03,42.805,6.029,0.057,-0.001,0.006,100.0,100.0,99.0,13.3,1505.2,328.6,-0.7,1.8,2470.725,13.28,0.057,91.0
2021-10-17T02:07:03,42.805,6.029,0.006,-0.026,-0.024,100.0,100.0,99.0,13.4,1505.2,329.1,-0.8,1.8,2470.708,13.28,0.026,167.0
2021-10-17T02:10:03,42.805,6.029,0.045,-0.002,0.005,101.0,97.0,98.0,13.4,1505.2,325.7,-0.8,1.8,2470.684,13.28,0.045,92.5
2021-10-17T02:13:03,42.805,6.029,0.0,0.0,-0.017,99.0,100.0,100.0,13.4,1505.2,328.1,-0.7,1.8,2470.683,13.28,0.0,0.0
2021-10-17T02:16:03,42.805,6.029,0.028,-0.01,-0.005,100.0,100.0,101.0,13.3,1505.2,326.8,-0.7,1.8,2470.657,13.28,0.029,109.6
2021-10-17T02:19:03,42.805,6.029,0.021,-0.02,-0.001,99.0,100.0,100.0,13.4,1505.2,331.1,-0.8,1.8,2470.69,13.28,0.028,133.6
2021-10-17T02:22:03,42.805,6.029,0.019,-0.036,-0.025,99.0,98.0,100.0,13.4,1505.2,328.4,-0.8,1.8,2470.671,13.28,0.04,152.2
2021-10-17T02:25:03,42.805,6.029,0.04,-0.024,0.042,100.0,100.0,99.0,13.3,1505.2,329.9,-0.7,1.8,2470.677,13.28,0.046,121.0
2021-10-17T02:28:03,42.805,6.029,0.039,-0.024,-0.002,97.0,101.0,100.0,13.3,1505.2,329.3,-0.7,1.8,2470.647,13.28,0.045,121.6
2021-10-17T02:31:03,42.805,6.029,0.021,-0.038,-0.051,99.0,100.0,100.0,13.4,1505.2,330.5,-0.8,1.8,2470.659,13.28,0.043,151.1
2021-10-17T02:34:03,42.805,6.029,0.021,-0.019,-0.023,100.0,101.0,99.0,13.3,1505.2,325.7,-0.7,1.8,2470.675,13.28,0.028,132.1
2021-10-17T02:37:03,42.805,6.029,0.029,-0.012,-0.023,100.0,99.0,100.0,13.3,1505.2,326.7,-0.8,1.8,2470.69,13.28,0.031,112.5
2021-10-17T02:40:03,42.805,6.029,0.013,-0.001,0.01,100.0,99.0,99.0,13.4,1505.2,329.6,-0.8,1.8,2470.659,13.28,0.013,94.4
2021-10-17T02:43:03,42.805,6.029,-0.004,0.007,-0.008,99.0,100.0,99.0,13.3,1505.2,328.1,-0.8,1.9,2470.68,13.28,0.008,330.3
2021-10-17T02:46:03,42.805,6.029,0.018,-0.011,-0.012,101.0,101.0,99.0,13.4,1505.2,325.4,-0.8,1.8,2470.657,13.28,0.021,121.4
2021-10-17T02:49:03,42.805,6.029,0.011,-0.014,-0.034,98.0,101.0,99.0,13.3,1505.2,328.2,-0.8,1.8,2470.716,13.28,0.017,141.8
2021-10-17T02:52:03,42.805,6.029,0.018,-0.023,-0.001,98.0,100.0,99.0,13.3,1505.2,327.4,-0.8,1.8,2470.728,13.28,0.029,142.0
2021-10-17T02:55:03,42.805,6.029,-0.008,0.007,-0.033,98.0,98.0,101.0,13.4,1505.2,326.7,-0.8,1.8,2470.682,13.28,0.01,311.2
2021-10-17T02:58:03,42.805,6.029,0.004,0.0,0.0,100.0,97.0,100.0,13.3,1505.2,327.8,-0.8,1.8,2470.707,13.28,0.004,90.0
2021-10-17T03:04:03,42.805,6.029,0.028,-0.01,-0.002,99.0,100.0,99.0,13.4,1505.2,329.7,-0.7,1.8,2470.719,13.28,0.029,109.6
2021-10-17T03:07:03,42.805,6.029,0.01,0.003,0.003,99.0,99.0,100.0,13.4,1505.2,326.9,-0.8,1.8,2470.732,13.28,0.01,73.3
2021-10-17T03:10:03,42.805,6.029,0.007,0.007,0.015,99.0,100.0,99.0,13.4,1505.2,327.0,-0.7,1.8,2470.691,13.28,0.009,45.0
2021-10-17T03:13:03,42.805,6.029,0.019,-0.005,-0.014,97.0,100.0,100.0,13.4,1505.2,325.7,-0.7,1.8,2470.718,13.28,0.019,104.7
2021-10-17T03:16:03,42.805,6.029,0.0,-0.003,-0.003,99.0,100.0,100.0,13.3,1505.2,327.0,-0.7,1.8,2470.72,13.28,0.003,180.0
2021-10-17T03:19:03,42.805,6.029,0.031,-0.028,-0.039,101.0,97.0,99.0,13.4,1505.2,330.0,-0.8,1.8,2470.686,13.28,0.041,132.1
2021-10-17T03:22:03,42.805,6.029,0.03,-0.023,-0.02,103.0,98.0,99.0,13.4,1505.2,327.2,-0.8,1.8,2470.702,13.28,0.037,127.5
2021-10-17T03:25:03,42.805,6.029,0.014,-0.028,-0.03,99.0,99.0,100.0,13.4,1505.2,330.9,-0.7,1.8,2470.692,13.28,0.031,153.4
2021-10-17T03:28:03,42.805,6.029,0.004,-0.032,-0.063,100.0,99.0,99.0,13.3,1505.2,325.4,-0.8,1.8,2470.735,13.28,0.032,172.9
2021-10-17T03:31:03,42.805,6.029,0.001,0.022,0.027,100.0,98.0,99.0,13.4,1505.2,329.8,-0.8,1.8,2470.728,13.28,0.022,2.6
2021-10-17T03:34:03,42.805,6.029,0.023,-0.016,-0.026,98.0,99.0,100.0,13.4,1505.2,328.2,-0.7,1.8,2470.705,13.28,0.028,124.8
2021-10-17T03:37:03,42.805,6.029,0.015,-0.014,-0.055,100.0,100.0,99.0,13.3,1505.2,327.2,-0.7,1.9,2470.703,13.28,0.02,133.0
2021-10-17T03:40:03,42.805,6.029,0.001,-0.008,-0.026,98.0,98.0,100.0,13.4,1505.2,329.1,-0.8,1.8,2470.699,13.28,0.008,172.9
2021-10-17T03:43:03,42.805,6.029,0.009,-0.006,-0.025,99.0,100.0,99.0,13.3,1505.2,329.4,-0.7,1.8,2470.689,13.28,0.01,123.7
2021-10-17T03:46:03,42.805,6.029,0.03,-0.011,-0.02,97.0,101.0,101.0,13.4,1505.2,326.1,-0.7,1.8,2470.735,13.28,0.031,110.1
2021-10-17T03:49:03,42.805,6.029,0.021,-0.033,-0.001,99.0,100.0,98.0,13.4,1505.2,330.0,-0.8,1.8,2470.671,13.28,0.039,147.5
2021-10-17T03:52:03,42.805,6.029,0.001,-0.001,-0.014,98.0,100.0,100.0,13.4,1505.2,331.4,-0.8,1.8,2470.718,13.28,0.001,135.0
2021-10-17T03:55:03,42.805,6.029,0.025,-0.022,-0.017,101.0,98.0,101.0,13.4,1505.2,330.0,-0.8,1.8,2470.739,13.28,0.033,131.3
2021-10-17T03:58:03,42.805,6.029,0.021,0.01,-0.012,100.0,99.0,100.0,13.4,1505.2,330.5,-0.8,1.8,2470.71,13.28,0.023,64.5
2021-10-17T04:04:03,42.805,6.029,0.03,-0.021,-0.011,99.0,100.0,99.0,13.3,1505.2,326.9,-0.8,1.8,2470.766,13.28,0.036,125.0
2021-10-17T04:07:03,42.805,6.029,0.013,-0.024,-0.058,101.0,98.0,98.0,13.4,1505.2,330.3,-0.7,1.9,2470.729,13.28,0.027,151.6
2021-10-17T04:10:03,42.805,6.029,0.001,-0.025,-0.018,99.0,100.0,99.0,13.4,1505.2,328.0,-0.7,1.8,2470.746,13.28,0.025,177.7
2021-10-17T04:13:03,42.805,6.029,0.006,-0.024,-0.038,99.0,100.0,98.0,13.3,1505.2,326.4,-0.7,1.8,2470.754,13.28,0.024,166.0
2021-10-17T04:16:03,42.805,6.029,0.025,-0.017,-0.034,100.0,101.0,98.0,13.4,1505.2,329.2,-0.7,1.8,2470.765,13.28,0.03,124.2
2021-10-17T04:19:03,42.805,6.029,-0.003,-0.019,-0.029,99.0,98.0,100.0,13.3,1505.2,331.2,-0.8,1.8,2470.735,13.28,0.019,189.0
2021-10-17T04:22:03,42.805,6.029,0.026,-0.02,0.011,99.0,99.0,100.0,13.4,1505.2,328.9,-0.7,1.8,2470.708,13.28,0.032,127.6
2021-10-17T04:25:03,42.805,6.029,0.002,-0.018,-0.047,100.0,100.0,97.0,13.4,1505.2,331.8,-0.8,1.8,2470.728,13.28,0.018,173.7
2021-10-17T04:28:03,42.805,6.029,-0.003,-0.015,-0.022,101.0,97.0,99.0,13.4,1505.2,331.7,-0.7,1.9,2470.709,13.28,0.015,191.3
2021-10-17T04:31:03,42.805,6.029,0.016,-0.024,0.017,100.0,99.0,99.0,13.4,1505.2,328.7,-0.8,1.8,2470.729,13.28,0.028,146.3
2021-10-17T04:34:03,42.805,6.029,0.032,-0.024,-0.03,100.0,101.0,99.0,13.4,1505.2,329.4,-0.8,1.8,2470.733,13.28,0.04,126.9
2021-10-17T04:37:03,42.805,6.029,0.017,-0.032,-0.022,98.0,101.0,99.0,13.4,1505.2,327.8,-0.7,1.8,2470.721,13.28,0.036,152.0
2021-10-17T04:40:03,42.805,6.029,0.016,-0.021,0.013,99.0,100.0,99.0,13.4,1505.2,330.8,-0.8,1.9,2470.739,13.28,0.026,142.7
2021-10-17T04:43:03,42.805,6.029,0.008,-0.015,-0.023,98.0,102.0,98.0,13.4,1505.2,326.8,-0.7,1.8,2470.736,13.28,0.017,151.9
2021-10-17T04:46:03,42.805,6.029,-0.002,-0.041,-0.08,99.0,99.0,99.0,13.4,1505.2,326.8,-0.8,1.8,2470.725,13.28,0.041,182.8
2021-10-17T04:49:03,42.805,6.029,0.037,-0.018,-0.005,100.0,100.0,99.0,13.4,1505.2,326.1,-0.8,1.8,2470.731,13.28,0.041,115.9
2021-10-17T04:52:03,42.805,6.029,0.021,-0.027,-0.032,99.0,99.0,99.0,13.3,1505.2,327.0,-0.8,1.8,2470.684,13.28,0.034,142.1
2021-10-17T04:55:03,42.805,6.029,0.053,-0.016,0.025,98.0,98.0,100.0,13.4,1505.2,330.9,-0.8,1.8,2470.686,13.28,0.055,106.8
2021-10-17T04:58:03,42.805,6.029,0.035,-0.01,0.017,100.0,101.0,99.0,13.4,1505.2,328.6,-0.7,1.8,2470.73,13.28,0.036,105.9
2021-10-17T05:04:03,42.805,6.029,0.014,-0.002,-0.027,99.0,100.0,99.0,13.4,1505.2,325.7,-0.8,1.8,2470.78,13.28,0.014,98.1
2021-10-17T05:07:03,42.805,6.029,-0.001,-0.002,-0.001,99.0,101.0,99.0,13.4,1505.2,327.7,-0.8,1.8,2470.772,13.28,0.002,206.6
2021-10-17T05:10:03,42.805,6.029,0.028,-0.03,-0.053,99.0,100.0,99.0,13.4,1505.2,330.7,-0.7,1.8,2470.775,13.28,0.041,137.0
2021-10-17T05:13:03,42.805,6.029,0.014,-0.02,-0.024,100.0,99.0,99.0,13.4,1505.2,325.8,-0.7,1.8,2470.74,13.28,0.024,145.0
2021-10-17T05:16:03,42.805,6.029,0.019,-0.009,0.014,99.0,100.0,99.0,13.4,1505.2,329.6,-0.8,1.8,2470.755,13.28,0.021,115.3
2021-10-17T05:19:03,42.805,6.029,0.025,-0.005,-0.009,99.0,100.0,100.0,13.4,1505.2,329.2,-0.7,1.8,2470.743,13.28,0.025,101.3
2021-10-17T05:22:03,42.805,6.029,0.012,0.009,0.038,100.0,99.0,100.0,13.4,1505.2,328.6,-0.7,1.8,2470.737,13.28,0.015,53.1
2021-10-17T05:25:03,42.805,6.029,0.029,-0.028,-0.01,100.0,100.0,99.0,13.4,1505.2,331.3,-0.8,1.8,2470.737,13.28,0.04,134.0
2021-10-17T05:28:03,42.805,6.029,0.03,-0.003,0.006,100.0,101.0,99.0,13.4,1505.2,329.4,-0.8,1.8,2470.765,13.28,0.03,95.7
2021-10-17T05:31:03,42.805,6.029,-0.005,0.005,0.0,99.0,100.0,99.0,13.3,1505.2,327.5,-0.8,1.8,2470.714,13.28,0.007,315.0
2021-10-17T05:34:03,42.805,6.029,0.019,-0.015,-0.038,101.0,99.0,99.0,13.4,1505.2,326.5,-0.8,1.8,2470.704,13.28,0.024,128.3
2021-10-17T05:37:03,42.805,6.029,0.045,-0.043,-0.023,100.0,100.0,98.0,13.4,1505.2,327.8,-0.8,1.8,2470.734,13.28,0.062,133.7
2021-10-17T05:40:03,42.805,6.029,0.02,-0.021,-0.01,98.0,100.0,100.0,13.3,1505.2,330.3,-0.7,1.8,2470.732,13.28,0.028,136.4
2021-10-17T05:43:03,42.805,6.029,0.018,-0.005,-0.011,99.0,100.0,99.0,13.4,1505.2,327.6,-0.7,1.8,2470.714,13.28,0.018,105.5
2021-10-17T05:46:03,42.805,6.029,0.022,-0.016,-0.016,100.0,101.0,100.0,13.4,1505.2,326.3,-0.7,1.8,2470.756,13.28,0.027,126.0
2021-10-17T05:49:03,42.805,6.029,0.008,-0.036,-0.025,100.0,100.0,99.0,13.3,1505.2,330.3,-0.7,1.8,2470.716,13.28,0.036,167.5
2021-10-17T05:52:03,42.805,6.029,0.017,-0.024,-0.034,98.0,100.0,100.0,13.4,1505.2,329.4,-0.8,1.8,2470.73,13.28,0.029,144.7
2021-10-17T05:55:03,42.805,6.029,0.01,0.0,0.016,100.0,100.0,99.0,13.3,1505.2,328.3,-0.8,1.8,2470.722,13.28,0.01,90.0
2021-10-17T05:58:03,42.805,6.029,0.023,-0.03,-0.014,100.0,99.0,98.0,13.3,1505.2,327.6,-0.7,1.8,2470.727,13.28,0.037,142.5
2021-10-17T06:04:03,42.805,6.029,0.007,-0.022,-0.029,100.0,100.0,98.0,13.3,1505.2,331.0,-0.8,1.8,2470.781,13.28,0.023,162.4
2021-10-17T06:07:03,42.805,6.029,0.031,-0.01,-0.002,99.0,99.0,100.0,13.4,1505.2,331.4,-0.8,1.8,2470.737,13.28,0.032,107.9
2021-10-17T06:10:03,42.805,6.029,0.017,-0.034,-0.038,99.0,100.0,99.0,13.4,1505.2,329.8,-0.8,1.8,2470.78,13.28,0.038,153.4
2021-10-17T06:13:03,42.805,6.029,0.023,-0.031,-0.022,100.0,98.0,99.0,13.4,1505.2,331.5,-0.7,1.8,2470.752,13.28,0.038,143.4
2021-10-17T06:16:03,42.805,6.029,0.002,-0.011,-0.001,99.0,100.0,99.0,13.4,1505.2,330.2,-0.7,1.8,2470.759,13.28,0.011,169.7
2021-10-17T06:19:03,42.805,6.029,0.004,-0.026,-0.038,100.0,99.0,100.0,13.3,1505.2,330.8,-0.7,1.8,2470.719,13.28,0.026,171.3
2021-10-17T06:22:03,42.805,6.029,0.018,-0.02,-0.057,99.0,98.0,101.0,13.4,1505.2,326.6,-0.8,1.8,2470.754,13.28,0.026,138.0
2021-10-17T06:25:03,42.805,6.029,0.019,-0.013,0.006,99.0,99.0,99.0,13.4,1505.2,328.2,-0.8,1.9,2470.728,13.28,0.023,124.4
2021-10-17T06:28:03,42.805,6.029,0.026,-0.016,-0.008,98.0,99.0,100.0,13.3,1505.2,332.0,-0.7,1.8,2470.708,13.28,0.03,121.6
2021-10-17T06:31:03,42.805,6.029,0.022,-0.041,-0.044,99.0,100.0,100.0,13.3,1505.2,328.5,-0.8,1.9,2470.722,13.28,0.046,151.8
2021-10-17T06:34:03,42.805,6.029,-0.004,0.005,-0.015,100.0,100.0,99.0,13.4,1505.2,331.7,-0.8,1.8,2470.763,13.28,0.006,321.3
2021-10-17T06:37:03,42.805,6.029,0.031,-0.043,-0.035,98.0,100.0,99.0,13.4,1505.2,331.0,-0.7,1.8,2470.768,13.28,0.053,144.2
2021-10-17T06:40:03,42.805,6.029,0.004,-0.034,-0.058,99.0,100.0,99.0,13.4,1505.2,329.1,-0.7,1.8,2470.716,13.28,0.034,173.3
2021-10-17T06:43:03,42.805,6.029,0.034,-0.022,0.008,98.0,100.0,100.0,13.4,1505.2,325.9,-0.7,1.8,2470.716,13.28,0.04,122.9
2021-10-17T06:46:03,42.805,6.029,0.002,0.008,-0.016,100.0,101.0,98.0,13.4,1505.2,327.8,-0.8,1.8,2470.758,13.28,0.008,14.0
2021-10-17T06:49:03,42.805,6.029,0.018,-0.018,-0.026,99.0,101.0,99.0,13.4,1505.2,326.0,-0.8,1.8,2470.719,13.28,0.025,135.0
2021-10-17T06:52:03,42.805,6.029,0.002,0.002,-0.019,100.0,100.0,99.0,13.4,1505.2,327.2,-0.8,1.8,2470.714,13.28,0.002,45.0
2021-10-17T06:55:03,42.805,6.029,0.034,-0.003,-0.003,100.0,99.0,99.0,13.4,1505.2,331.6,-0.7,1.8,2470.703,13.28,0.034,95.0
2021-10-17T06:58:03,42.805,6.029,0.014,-0.013,-0.023,99.0,100.0,100.0,13.4,1505.2,328.2,-0.7,1.8,2470.699,13.28,0.019,132.9
2021-10-17T07:04:03,42.805,6.029,0.01,-0.019,-0.023,100.0,99.0,99.0,13.4,1505.2,329.8,-0.8,1.8,2470.736,13.28,0.021,152.2
2021-10-17T07:07:03,42.805,6.029,0.039,-0.014,-0.007,99.0,100.0,99.0,13.4,1505.2,327.3,-0.7,1.8,2470.748,13.28,0.041,109.7
2021-10-17T07:10:03,42.805,6.029,0.048,-0.028,0.008,97.0,100.0,100.0,13.4,1505.2,326.8,-0.8,1.8,2470.725,13.28,0.055,120.3
2021-10-17T07:13:03,42.805,6.029,0.023,-0.031,-0.021,99.0,101.0,98.0,13.4,1505.2,328.3,-0.7,1.8,2470.722,13.28,0.038,143.4
2021-10-17T07:16:03,42.805,6.029,0.012,-0.015,-0.019,99.0,99.0,99.0,13.3,1505.2,326.7,-0.7,1.8,2470.709,13.28,0.019,141.3
2021-10-17T07:19:03,42.805,6.029,0.015,-0.009,-0.009,99.0,101.0,99.0,13.3,1505.2,331.3,-0.8,1.9,2470.755,13.28,0.017,121.0
2021-10-17T07:22:03,42.805,6.029,0.046,-0.031,-0.013,100.0,99.0,99.0,13.4,1505.2,327.9,-0.7,1.8,2470.734,13.28,0.055,124.0
2021-10-17T07:25:03,42.805,6.029,0.042,-0.034,-0.034,98.0,101.0,99.0,13.4,1505.2,329.6,-0.8,1.8,2470.738,13.28,0.054,129.0
2021-10-17T07:28:03,42.805,6.029,0.03,-0.044,-0.003,100.0,100.0,98.0,13.4,1505.2,330.0,-0.7,1.8,2470.701,13.28,0.053,145.7
2021-10-17T07:31:03,42.805,6.029,0.035,-0.022,-0.008,99.0,100.0,99.0,13.4,1505.2,329.7,-0.7,1.8,2470.77,13.28,0.041,122.2
2021-10-17T07:34:03,42.805,6.029,0.019,-0.038,-0.037,99.0,100.0,99.0,13.4,1505.2,329.8,-0.7,1.8,2470.724,13.28,0.042,153.4
2021-10-17T07:37:03,42.805,6.029,-0.001,-0.026,-0.039,100.0,99.0,99.0,13.4,1505.2,330.8,-0.7,1.8,2470.676,13.28,0.026,182.2
2021-10-17T07:40:03,42.805,6.029,0.016,-0.026,0.004,100.0,99.0,99.0,13.4,1505.2,328.1,-0.7,1.8,2470.704,13.28,0.03,148.4
2021-10-17T07:43:03,42.805,6.029,0.029,-0.003,0.008,99.0,100.0,98.0,13.3,1505.2,325.6,-0.7,1.8,2470.689,13.28,0.029,95.9
2021-10-17T07:46:03,42.805,6.029,0.003,-0.022,-0.007,99.0,100.0,100.0,13.3,1505.2,325.6,-0.7,1.8,2470.684,13.28,0.022,172.2
2021-10-17T07:49:03,42.805,6.029,0.02,-0.011,-0.005,99.0,100.0,99.0,13.4,1505.2,326.4,-0.7,1.8,2470.696,13.28,0.022,118.8
2021-10-17T07:52:03,42.805,6.029,0.011,-0.013,-0.004,99.0,99.0,100.0,13.4,1505.2,327.2,-0.8,1.9,2470.698,13.28,0.017,139.8
2021-10-17T07:55:03,42.805,6.029,0.024,-0.025,-0.016,100.0,98.0,100.0,13.4,1505.2,327.5,-0.7,1.8,2470.668,13.28,0.034,136.2
2021-10-17T07:58:03,42.805,6.029,0.043,-0.037,-0.017,99.0,99.0,100.0,13.4,1505.2,329.7,-0.8,1.8,2470.717,13.28,0.056,130.7
2021-10-17T08:04:03,42.805,6.029,0.035,-0.015,-0.006,99.0,99.0,99.0,13.4,1505.2,329.1,-0.8,1.8,2470.678,13.28,0.038,113.2
2021-10-17T08:07:03,42.805,6.029,0.01,-0.022,-0.014,99.0,100.0,98.0,13.3,1505.2,329.4,-0.8,1.9,2470.727,13.28,0.024,155.6
2021-10-17T08:10:03,42.805,6.029,0.021,-0.034,-0.042,100.0,100.0,99.0,13.3,1505.2,329.9,-0.7,1.9,2470.741,13.28,0.039,148.3
2021-10-17T08:13:03,42.805,6.029,0.021,-0.007,-0.02,99.0,97.0,100.0,13.4,1505.2,331.0,-0.8,1.9,2470.719,13.28,0.022,108.4
2021-10-17T08:16:03,42.805,6.029,0.059,-0.024,0.005,100.0,99.0,99.0,13.4,1505.2,328.1,-0.8,1.9,2470.667,13.28,0.063,112.1
2021-10-17T08:19:03,42.805,6.029,0.021,-0.024,-0.015,99.0,99.0,99.0,13.4,1505.2,329.2,-0.8,1.8,2470.657,13.28,0.031,138.8
2021-10-17T08:22:03,42.805,6.029,0.004,-0.007,-0.005,99.0,99.0,100.0,13.3,1505.2,326.1,-0.7,1.8,2470.676,13.28,0.008,150.3
2021-10-17T08:25:03,42.805,6.029,0.03,-0.021,-0.022,100.0,99.0,99.0,13.4,1505.2,327.6,-0.8,1.8,2470.686,13.28,0.036,125.0
2021-10-17T08:28:03,42.805,6.029,0.014,-0.019,-0.024,98.0,100.0,99.0,13.4,1505.2,330.6,-0.8,1.8,2470.669,13.28,0.023,143.6
2021-10-17T08:31:03,42.805,6.029,0.028,-0.01,0.004,100.0,99.0,99.0,13.3,1505.2,325.7,-0.7,1.8,2470.679,13.28,0.029,109.6
2021-10-17T08:34:03,42.805,6.029,0.047,-0.046,-0.009,98.0,101.0,99.0,13.3,1505.2,329.6,-0.7,1.8,2470.668,13.28,0.065,134.4
2021-10-17T08:37:03,42.805,6.029,0.032,-0.023,-0.017,100.0,99.0,99.0,13.4,1505.2,328.8,-0.7,1.8,2470.698,13.28,0.039,125.7
2021-10-17T08:40:03,42.805,6.029,0.016,0.008,-0.013,99.0,100.0,99.0,13.3,1505.2,331.1,-0.8,1.8,2470.697,13.28,0.017,63.4
2021-10-17T08:43:03,42.805,6.029,0.055,-0.017,0.033,99.0,99.0,99.0,13.4,1505.2,329.5,-0.7,1.8,2470.65,13.28,0.057,107.2
2021-10-17T08:46:03,42.805,6.029,0.017,-0.033,-0.016,101.0,100.0,98.0,13.4,1505.2,327.2,-0.8,1.8,2470.656,13.28,0.037,152.7
2021-10-17T08:49:03,42.805,6.029,0.016,-0.011,-0.014,99.0,101.0,99.0,13.4,1505.2,328.9,-0.8,1.8,2470.674,13.28,0.019,124.5
2021-10-17T08:52:03,42.805,6.029,0.034,-0.026,-0.033,99.0,100.0,99.0,13.3,1505.2,325.6,-0.8,1.8,2470.712,13.28,0.042,127.4
2021-10-17T08:55:03,42.805,6.029,-0.004,-0.012,-0.006,99.0,99.0,99.0,13.3,1505.2,327.9,-0.7,1.9,2470.658,13.28,0.012,198.4
2021-10-17T08:58:03,42.805,6.029,0.043,-0.011,0.032,100.0,98.0,100.0,13.3,1505.2,329.2,-0.8,1.8,2470.658,13.28,0.044,104.3
2021-10-17T09:04:03,42.805,6.029,0.041,-0.026,-0.017,99.0,100.0,99.0,13.4,1505.2,329.9,-0.8,1.8,2470.753,13.28,0.048,122.4
2021-10-17T09:07:03,42.805,6.029,0.039,-0.001,-0.008,100.0,99.0,99.0,13.4,1505.2,328.6,-0.8,1.8,2470.694,13.28,0.039,91.5
2021-10-17T09:10:03,42.805,6.029,0.051,-0.025,0.001,100.0,99.0,99.0,13.4,1505.2,329.0,-0.8,1.8,2470.708,13.28,0.056,116.1
2021-10-17T09:13:03,42.805,6.029,0.041,-0.037,-0.01,98.0,100.0,100.0,13.4,1505.2,328.8,-0.8,1.8,2470.669,13.28,0.055,132.1
2021-10-17T09:16:03,42.805,6.029,0.043,-0.007,0.015,99.0,100.0,99.0,13.4,1505.2,327.3,-0.7,1.9,2470.668,13.28,0.043,99.2
2021-10-17T09:19:03,42.805,6.029,0.025,-0.026,0.001,100.0,98.0,99.0,13.3,1505.2,331.2,-0.8,1.8,2470.69,13.28,0.036,136.1
2021-10-17T09:22:03,42.805,6.029,0.04,-0.031,-0.032,100.0,100.0,98.0,13.4,1505.2,326.6,-0.8,1.8,2470.666,13.28,0.05,127.8
2021-10-17T09:25:03,42.805,6.029,0.024,-0.028,-0.028,98.0,100.0,100.0,13.4,1505.2,328.0,-0.8,1.8,2470.622,13.28,0.036,139.4
2021-10-17T09:28:03,42.805,6.029,0.047,-0.013,0.014,101.0,98.0,100.0,13.4,1505.2,327.1,-0.8,1.8,2470.623,13.28,0.048,105.5
2021-10-17T09:31:03,42.805,6.029,0.028,-0.018,0.009,100.0,101.0,97.0,13.4,1505.2,328.7,-0.8,1.8,2470.633,13.28,0.033,122.7
2021-10-17T09:34:03,42.805,6.029,0.039,-0.025,-0.024,99.0,101.0,99.0,13.4,1505.2,329.7,-0.8,1.8,2470.647,13.28,0.046,122.7
2021-10-17T09:37:03,42.805,6.029,0.038,-0.003,0.027,100.0,100.0,99.0,13.3,1505.2,327.4,-0.8,1.8,2470.666,13.28,0.038,94.5
2021-10-17T09:40:03,42.805,6.029,0.029,-0.023,-0.025,98.0,100.0,100.0,13.4,1505.2,331.3,-0.7,1.8,2470.644,13.28,0.037,128.4
2021-10-17T09:43:03,42.805,6.029,0.05,0.002,0.018,99.0,101.0,99.0,13.3,1505.2,325.9,-0.8,1.8,2470.604,13.28,0.05,87.7
2021-10-17T09:46:03,42.805,6.029,0.026,-0.02,0.0,98.0,100.0,100.0,13.4,1505.2,328.1,-0.7,1.8,2470.654,13.28,0.032,127.6
2021-10-17T09:49:03,42.805,6.029,0.031,-0.038,-0.008,99.0,100.0,98.0,13.4,1505.2,330.8,-0.7,1.8,2470.595,13.28,0.049,140.8
2021-10-17T09:52:03,42.805,6.029,0.028,-0.037,-0.034,99.0,99.0,99.0,13.3,1505.2,326.4,-0.7,1.8,2470.647,13.28,0.046,142.9
2021-10-17T09:55:03,42.805,6.029,0.031,-0.034,-0.014,99.0,99.0,99.0,13.4,1505.2,330.6,-0.7,1.8,2470.664,13.28,0.046,137.6
2021-10-17T09:58:03,42.805,6.029,0.046,-0.015,0.013,99.0,99.0,99.0,13.3,1505.2,329.2,-0.7,1.8,2470.66,13.28,0.048,108.1
2021-10-17T10:04:03,42.805,6.029,0.008,-0.007,0.033,100.0,99.0,99.0,13.4,1505.2,330.5,-0.8,1.8,2470.675,13.28,0.01,131.2